Content
SEND FEEDBACK

Daily
Averages
Monthly
Summary
United States of America

CARSON CITY, NEVADA


Home > North America > United States > Nevada
Elevation: 4742 feet     Latitude: 39 09N     Longitude: 119 46W

WEATHER
 
SELECT A DAY
Number of Records: 91,402;   Date Range: 7/14/10 - 7/24/14
 
SHARE

PRINT THIS DATA

[ ← Previous Day ]
WEATHER ALMANAC - DECEMBER 17, 2013
[ Next Day → ]
[ °C ]   °F
Weather ElementAverageHighLow
Temperature24.5 °F37.4 °F (1:55 pm)14 °F (3:55 am)
Dewpoint19 °F24.8 °F (3:35 pm)10.4 °F (3:55 am)
Humidity80.5 %93 % (12:55 am)56 % (1:55 pm)
Barometer30.34 in30.45 in (12:35 am)30.21 in (11:55 pm)
Weather ElementAverage
Wind DirectionN (4.1 °)

Weather ElementTotal
Precipitation---
Heating Degree Days39.3 (Base 65)
Averaged from 71 records on December 17, 2013
WEATHER CONDITIONS BREAKOUT
WIND DIRECTION BREAKOUT
WEATHER BY HOUR - DECEMBER 17, 2013
[ °C ]   °F
Local TimeTemperatureDewpointHumidityBarometerVisibilityWind DirectionWind SpeedGust SpeedPrecipitationEventsConditions
12:35 AM17.6 °F14.0 °F86 %30.45 in7.0 miCalmClear
12:55 AM17.6 °F15.8 °F93 %30.45 in7.0 miCalmClear
1:15 AM17.6 °F14.0 °F86 %30.45 in7.0 miCalmClear
1:35 AM15.8 °F14.0 °F93 %30.45 in5.0 miCalmClear
1:55 AM15.8 °F14.0 °F93 %30.45 in3.0 miCalmClear
2:15 AM17.6 °F15.8 °F93 %30.45 in5.0 miCalmClear
2:35 AM15.8 °F14.0 °F93 %30.45 in3.0 miCalmClear
2:55 AM15.8 °F14.0 °F93 %30.45 in1.2 miCalmClear
3:15 AM15.8 °F14.0 °F93 %30.44 in2.0 miCalmClear
3:35 AM15.8 °F14.0 °F93 %30.44 in5.0 miCalmClear
3:55 AM14.0 °F10.4 °F86 %30.43 in5.0 miCalmClear
4:15 AM15.8 °F12.2 °F86 %30.43 in5.0 miCalmClear
4:35 AM14.0 °F10.4 °F86 %30.43 in7.0 miCalmClear
4:55 AM14.0 °F10.4 °F86 %30.42 in7.0 miCalmClear
5:15 AM14.0 °F10.4 °F86 %30.42 in5.0 miCalmClear
5:35 AM14.0 °F12.2 °F93 %30.42 in5.0 miCalmClear
5:55 AM15.8 °F12.2 °F86 %30.42 in5.0 miCalmClear
6:15 AM15.8 °F14.0 °F93 %30.41 in5.0 miCalmClear
6:35 AM15.8 °F12.2 °F86 %30.41 in5.0 miCalmPartly Cloudy
6:55 AM14.0 °F10.4 °F86 %30.41 in5.0 miCalmScattered Clouds
7:15 AM14.0 °F12.2 °F93 %30.41 in4.0 miCalmPartly Cloudy
7:35 AM15.8 °F14.0 °F93 %30.41 in5.0 miCalmClear
7:55 AM14.0 °F10.4 °F86 %30.41 in4.0 miCalmClear
8:15 AM15.8 °F14.0 °F93 %30.41 in4.0 miCalmClear
8:35 AM17.6 °F14.0 °F86 %30.42 in4.0 miCalmClear
8:55 AM17.6 °F14.0 °F86 %30.42 in4.0 miCalmClear
9:15 AM21.2 °F17.6 °F86 %30.42 in5.0 miCalmClear
9:35 AM23.0 °F17.6 °F80 %30.42 in5.0 miCalmHaze
9:55 AM24.8 °F19.4 °F80 %30.41 in5.0 miCalmHaze
10:15 AM26.6 °F19.4 °F74 %30.41 in5.0 miCalmHaze
10:35 AM28.4 °F19.4 °F69 %30.40 in6.0 miCalmHaze
10:55 AM28.4 °F21.2 °F74 %30.40 in7.0 miCalmClear
11:15 AM30.2 °F21.2 °F69 %30.39 in8.0 miCalmClear
11:35 AM30.2 °F21.2 °F69 %30.37 in8.0 miCalmClear
11:55 AM32.0 °F21.2 °F64 %30.36 in8.0 miCalmClear
12:15 PM32.0 °F23.0 °F69 %30.35 in9.0 miCalmClear
12:35 PM33.8 °F23.0 °F65 %30.33 in10.0 miCalmClear
12:55 PM33.8 °F23.0 °F65 %30.31 in9.0 miCalmClear
1:15 PM33.8 °F23.0 °F65 %30.30 in10.0 miCalmClear
1:35 PM35.6 °F23.0 °F60 %30.30 in10.0 miCalmClear
1:55 PM37.4 °F23.0 °F56 %30.29 in10.0 miCalmClear
2:15 PM35.6 °F23.0 °F60 %30.29 in10.0 miCalmClear
2:35 PM37.4 °F23.0 °F56 %30.28 in10.0 miCalmClear
2:55 PM37.4 °F23.0 °F56 %30.29 in10.0 miCalmClear
3:15 PM37.4 °F23.0 °F56 %30.28 in10.0 miCalmClear
3:35 PM37.4 °F24.8 °F60 %30.28 in10.0 miCalmClear
3:55 PM35.6 °F24.8 °F65 %30.28 in10.0 miCalmClear
4:15 PM35.6 °F24.8 °F65 %30.27 in10.0 miCalmClear
4:35 PM32.0 °F24.8 °F75 %30.27 in10.0 miCalmClear
4:55 PM33.8 °F24.8 °F70 %30.27 in8.0 miCalmClear
5:15 PM32.0 °F24.8 °F75 %30.27 in10.0 miCalmClear
5:35 PM30.2 °F24.8 °F80 %30.27 in10.0 miCalmClear
5:55 PM32.0 °F24.8 °F75 %30.27 in10.0 miCalmClear
6:15 PM28.4 °F24.8 °F86 %30.27 in10.0 miCalmClear
6:35 PM28.4 °F24.8 °F86 %30.27 in10.0 miCalmClear
6:55 PM28.4 °F24.8 °F86 %30.26 in10.0 miCalmClear
7:15 PM28.4 °F23.0 °F80 %30.26 in10.0 miCalmClear
7:35 PM26.6 °F23.0 °F86 %30.26 in8.0 miCalmClear
7:55 PM26.6 °F23.0 °F86 %30.26 in10.0 miCalmClear
8:15 PM26.6 °F23.0 °F86 %30.25 in10.0 miCalmClear
8:35 PM24.8 °F21.2 °F86 %30.25 in10.0 miCalmClear
8:55 PM26.6 °F23.0 °F86 %30.24 in9.0 miCalmClear
9:15 PM24.8 °F21.2 °F86 %30.24 in10.0 miCalmClear
9:35 PM24.8 °F21.2 °F86 %30.25 in10.0 miCalmClear
9:55 PM24.8 °F21.2 °F86 %30.24 in10.0 miWNW (290°)3.5 mphClear
10:15 PM26.6 °F23.0 °F86 %30.24 in10.0 miCalmClear
10:35 PM24.8 °F21.2 °F86 %30.24 in10.0 miCalmClear
10:55 PM24.8 °F19.4 °F80 %30.23 in10.0 miCalmClear
11:15 PM24.8 °F23.0 °F93 %30.23 in9.0 miCalmPartly Cloudy
11:35 PM23.0 °F19.4 °F86 %30.22 in10.0 miCalmPartly Cloudy
11:55 PM24.8 °F23.0 °F93 %30.21 in10.0 miCalmClear
Hourly data recorded from KCXP, located miles away from Carson City, Nevada







STORIES FROM OUR PARTNERS